Weather History for Crisp Cnty-Cordele AP, Cordel, GA

Change the Weather History Date:

Saturday, March 22, 2014

  Actual Average (KABY) Record (KABY)
Temperature  
Mean Temperature 70 °F 61 °F  
Max Temperature 82 °F 74 °F 89 °F (1935)
Min Temperature 57 °F 48 °F 27 °F (1990)
Degree Days  
Heating Degree Days 0 5  
Month to date heating degree days 167  
Since 1 July heating degree days 1727  
Cooling Degree Days 4 1  
Month to date cooling degree days 22  
Year to date cooling degree days 31  
Growing Degree Days 20 (Base 50)    
Moisture  
Dew Point 51 °F    
Average Humidity 57    
Maximum Humidity 85    
Minimum Humidity 26    
Precipitation  
Precipitation 0.00 in - 1.86 in (2005)
Sea Level Pressure  
Sea Level Pressure 30.04 in    
Wind  
Wind Speed 2 mph (NW)    
Max Wind Speed 8 mph    
Max Gust Speed -    
Visibility 10 miles    
Events      
T = Trace of Precipitation, MM = Missing Value Source: NWS Daily Summary

Daily Weather History Graph

Daily Weather History Graph

Search for Another Location

Airport:

Trip Planner

Search our weather history database for the weather conditions in past years. The results will help you decide how hot, cold, wet, or windy it might be!

Date:

Astronomy

Mar. 22, 2014 Rise Set
Actual Time 7:36 AM EDT 7:48 PM EDT
Civil Twilight 7:11 AM EDT 8:12 PM EDT
Nautical Twilight 6:43 AM EDT 8:40 PM EDT
Astronomical Twilight 6:14 AM EDT 9:09 PM EDT
Moon 12:49 AM EDT (3/22) 11:35 AM EDT (3/22)
Length of Visible Light 13h 00m
Length of Day
12h 11m
Waning Gibbous, 65% of the Moon is Illuminated
Mar 22
Waning Gibbous
Mar 23
Last Quarter
Mar 30
New
Apr 7
First Quarter
Apr 15
Full

Hourly Weather History & Observations

Time (EDT) Temp. Dew Point Humidity Pressure Visibility Wind Dir Wind Speed Gust Speed Precip Events Conditions
12:15 AM 59.4 °F 50.7 °F 73% 30.08 in 10.0 mi Calm Calm - N/A   Clear
12:35 AM 59.7 °F 50.5 °F 72% 30.08 in 10.0 mi Calm Calm - N/A   Clear
12:55 AM 58.6 °F 51.6 °F 77% 30.07 in 10.0 mi Calm Calm - N/A   Clear
1:15 AM 58.1 °F 50.9 °F 77% 30.07 in 10.0 mi NE 3.5 mph - N/A   Clear
1:35 AM 57.2 °F 51.1 °F 80% 30.06 in 10.0 mi Calm Calm - N/A   Scattered Clouds
1:55 AM 58.5 °F 50.9 °F 76% 30.06 in 10.0 mi Calm Calm - N/A   Clear
2:15 AM 59.2 °F 50.9 °F 74% 30.05 in 10.0 mi Calm Calm - N/A   Clear
2:35 AM 61.0 °F 51.3 °F 70% 30.05 in 10.0 mi Calm Calm - N/A   Clear
2:55 AM 61.3 °F 51.1 °F 69% 30.05 in 10.0 mi ESE 3.5 mph - N/A   Clear
3:15 AM 61.9 °F 50.4 °F 66% 30.04 in 10.0 mi ESE 3.5 mph - N/A   Clear
3:35 AM 62.4 °F 50.4 °F 65% 30.04 in 10.0 mi SE 3.5 mph - N/A   Clear
3:55 AM 60.8 °F 50.5 °F 69% 30.04 in 10.0 mi Calm Calm - N/A   Scattered Clouds
4:15 AM 62.2 °F 50.5 °F 65% 30.03 in 10.0 mi SSE 4.6 mph - N/A   Scattered Clouds
4:35 AM 63.0 °F 51.1 °F 65% 30.04 in 10.0 mi South 5.8 mph - N/A   Scattered Clouds
4:55 AM 63.5 °F 51.4 °F 65% 30.04 in 10.0 mi South 3.5 mph - N/A   Mostly Cloudy
5:15 AM 63.5 °F 52.0 °F 66% 30.05 in 10.0 mi Calm Calm - N/A   Mostly Cloudy
5:35 AM 63.1 °F 52.2 °F 67% 30.05 in 10.0 mi Calm Calm - N/A   Mostly Cloudy
5:55 AM 62.4 °F 52.7 °F 70% 30.05 in 10.0 mi Calm Calm - N/A   Mostly Cloudy
6:15 AM 60.8 °F 54.0 °F 78% 30.06 in 10.0 mi Calm Calm - N/A   Overcast
6:35 AM 61.7 °F 54.0 °F 76% 30.06 in 10.0 mi Calm Calm - N/A   Overcast
6:55 AM 61.2 °F 55.4 °F 81% 30.06 in 10.0 mi Calm Calm - N/A   Overcast
7:15 AM 60.8 °F 55.0 °F 81% 30.07 in 10.0 mi Calm Calm - N/A   Overcast
7:35 AM 60.8 °F 54.7 °F 80% 30.07 in 10.0 mi Calm Calm - N/A   Mostly Cloudy
7:55 AM 59.9 °F 54.0 °F 81% 30.07 in 10.0 mi Calm Calm - N/A   Clear
8:15 AM 59.2 °F 54.7 °F 85% 30.07 in 10.0 mi Calm Calm - N/A   Mostly Cloudy
8:35 AM 60.8 °F 54.9 °F 81% 30.08 in 10.0 mi Calm Calm - N/A   Mostly Cloudy
8:55 AM 61.7 °F 55.4 °F 80% 30.08 in 10.0 mi Calm Calm - N/A   Scattered Clouds
9:15 AM 62.6 °F 54.3 °F 74% 30.09 in 10.0 mi Calm Calm - N/A   Clear
9:35 AM 63.1 °F 54.9 °F 74% 30.09 in 10.0 mi Calm Calm - N/A   Clear
9:55 AM 64.0 °F 53.6 °F 69% 30.09 in 10.0 mi West 3.5 mph - N/A   Clear
10:15 AM 65.3 °F 52.9 °F 64% 30.09 in 10.0 mi West 3.5 mph - N/A   Clear
10:35 AM 66.7 °F 52.9 °F 61% 30.09 in 10.0 mi Calm Calm - N/A   Clear
10:55 AM 69.8 °F 52.3 °F 54% 30.09 in 10.0 mi NW 3.5 mph - N/A   Clear
11:15 AM 72.5 °F 52.7 °F 50% 30.09 in 10.0 mi NW 4.6 mph - N/A   Clear
11:35 AM 74.7 °F 52.3 °F 46% 30.09 in 10.0 mi NNW 5.8 mph - N/A   Clear
11:55 AM 75.9 °F 52.3 °F 44% 30.08 in 10.0 mi NW 5.8 mph - N/A   Clear
12:15 PM 76.3 °F 50.9 °F 41% 30.07 in 10.0 mi West 6.9 mph - N/A   Clear
12:35 PM 77.5 °F 51.6 °F 40% 30.06 in 10.0 mi NW 4.6 mph - N/A   Clear
12:55 PM 78.3 °F 51.6 °F 39% 30.06 in 10.0 mi WNW 8.1 mph - N/A   Clear
1:15 PM 78.4 °F 49.6 °F 36% 30.05 in 10.0 mi NW 4.6 mph - N/A   Clear
1:35 PM 78.1 °F 47.5 °F 34% 30.04 in 10.0 mi NW 4.6 mph - N/A   Clear
1:55 PM 79.3 °F 46.6 °F 31% 30.03 in 10.0 mi NNW 6.9 mph - N/A   Clear
2:15 PM 79.5 °F 43.9 °F 28% 30.02 in 10.0 mi Calm Calm - N/A   Clear
2:35 PM 79.9 °F 42.1 °F 26% 30.01 in 10.0 mi NW 3.5 mph - N/A   Clear
2:55 PM 81.1 °F 44.2 °F 27% 30.00 in 10.0 mi WNW 5.8 mph - N/A   Clear
3:15 PM 81.0 °F 43.9 °F 27% 29.99 in 10.0 mi NW 5.8 mph - N/A   Clear
3:35 PM 80.6 °F 42.8 °F 26% 29.98 in 10.0 mi Calm Calm - N/A   Clear
3:55 PM 81.5 °F 45.0 °F 28% 29.98 in 10.0 mi ENE 5.8 mph - N/A   Clear
4:15 PM 82.2 °F 46.0 °F 28% 29.98 in 10.0 mi NW 6.9 mph - N/A   Clear
4:35 PM 81.1 °F 43.3 °F 26% 29.97 in 10.0 mi Calm Calm - N/A   Clear
4:55 PM 81.9 °F 43.9 °F 26% 29.97 in 10.0 mi NNW 8.1 mph - N/A   Clear
5:15 PM 80.6 °F 43.3 °F 27% 29.97 in 10.0 mi Calm Calm - N/A   Clear
5:35 PM 81.1 °F 46.2 °F 29% 29.97 in 10.0 mi West 4.6 mph - N/A   Clear
5:55 PM 80.2 °F 47.8 °F 32% 29.98 in 10.0 mi NNW 5.8 mph - N/A   Clear
6:15 PM 79.0 °F 48.0 °F 34% 29.99 in 10.0 mi NNE 5.8 mph - N/A   Clear
6:35 PM 78.3 °F 48.2 °F 35% 29.99 in 10.0 mi NNE 3.5 mph - N/A   Clear
6:55 PM 77.9 °F 49.1 °F 36% 29.99 in 10.0 mi NNE 3.5 mph - N/A   Clear
7:20 PM 76.3 °F 51.3 °F 41% 30.00 in 10.0 mi Calm Calm - N/A   Clear
7:35 PM 73.8 °F 52.3 °F 47% 30.00 in 10.0 mi Calm Calm - N/A   Clear
7:55 PM 72.1 °F 54.0 °F 53% 30.01 in 10.0 mi Calm Calm - N/A   Clear
8:15 PM 70.7 °F 52.9 °F 53% 30.01 in 10.0 mi Calm Calm - N/A   Clear
8:35 PM 69.8 °F 53.1 °F 55% 30.02 in 10.0 mi Calm Calm - N/A   Clear
8:55 PM 69.1 °F 53.2 °F 57% 30.02 in 10.0 mi Calm Calm - N/A   Clear
9:15 PM 67.6 °F 53.6 °F 61% 30.03 in 10.0 mi Calm Calm - N/A   Clear
9:35 PM 68.2 °F 53.8 °F 60% 30.03 in 10.0 mi Calm Calm - N/A   Clear
9:55 PM 67.6 °F 53.8 °F 61% 30.04 in 10.0 mi Calm Calm - N/A   Clear
10:15 PM 66.2 °F 54.7 °F 66% 30.04 in 10.0 mi Calm Calm - N/A   Clear
10:35 PM 65.1 °F 54.7 °F 69% 30.04 in 10.0 mi Calm Calm - N/A   Clear
10:55 PM 64.6 °F 55.0 °F 71% 30.04 in 10.0 mi Calm Calm - N/A   Clear
11:15 PM 63.9 °F 55.0 °F 73% 30.04 in 10.0 mi Calm Calm - N/A   Clear
11:35 PM 63.1 °F 54.9 °F 74% 30.04 in 10.0 mi Calm Calm - N/A   Clear
11:55 PM 63.5 °F 55.9 °F 76% 30.04 in 10.0 mi Calm Calm - N/A   Clear